TimeCDT,TemperatureF,Dew PointF,Humidity,Sea Level PressureIn,VisibilityMPH,Wind Direction,Wind SpeedMPH,Gust SpeedMPH,PrecipitationIn,Events,Conditions,WindDirDegrees,DateUTC
12:15 AM,77.0,69.8,78,30.28,10.0,Calm,Calm,-,N/A,,Clear,0,2013-07-17 05:15:00
12:35 AM,73.4,69.8,88,30.28,10.0,Calm,Calm,-,N/A,,Clear,0,2013-07-17 05:35:00
12:55 AM,73.4,71.6,94,30.28,10.0,Calm,Calm,-,N/A,,Clear,0,2013-07-17 05:55:00
1:15 AM,73.4,71.6,94,30.29,10.0,Calm,Calm,-,N/A,,Clear,0,2013-07-17 06:15:00
1:35 AM,73.4,71.6,94,30.28,10.0,Calm,Calm,-,N/A,,Clear,0,2013-07-17 06:35:00
1:55 AM,73.4,71.6,94,30.28,10.0,Calm,Calm,-,N/A,,Clear,0,2013-07-17 06:55:00
2:15 AM,73.4,71.6,94,30.29,10.0,Calm,Calm,-,N/A,,Clear,0,2013-07-17 07:15:00
2:35 AM,71.6,71.6,100,30.29,10.0,Calm,Calm,-,N/A,,Clear,0,2013-07-17 07:35:00
2:55 AM,71.6,71.6,100,30.29,10.0,Calm,Calm,-,N/A,,Clear,0,2013-07-17 07:55:00
3:15 AM,71.6,71.6,100,30.29,10.0,Calm,Calm,-,N/A,,Clear,0,2013-07-17 08:15:00
3:35 AM,71.6,71.6,100,30.29,10.0,Calm,Calm,-,N/A,,Clear,0,2013-07-17 08:35:00
3:55 AM,71.6,71.6,100,30.29,10.0,Calm,Calm,-,N/A,,Clear,0,2013-07-17 08:55:00
4:15 AM,69.8,69.8,100,30.29,10.0,Calm,Calm,-,N/A,,Clear,0,2013-07-17 09:15:00
4:35 AM,69.8,69.8,100,30.28,10.0,Calm,Calm,-,N/A,,Clear,0,2013-07-17 09:35:00
4:55 AM,69.8,69.8,100,30.28,10.0,Calm,Calm,-,N/A,,Clear,0,2013-07-17 09:55:00
5:15 AM,69.8,69.8,100,30.28,10.0,Calm,Calm,-,N/A,,Clear,0,2013-07-17 10:15:00
5:35 AM,69.8,69.8,100,30.29,10.0,Calm,Calm,-,N/A,,Clear,0,2013-07-17 10:35:00
5:55 AM,69.8,69.8,100,30.29,10.0,Calm,Calm,-,N/A,,Clear,0,2013-07-17 10:55:00
6:15 AM,69.8,69.8,100,30.30,5.0,Calm,Calm,-,N/A,,Clear,0,2013-07-17 11:15:00
6:35 AM,69.8,69.8,100,30.30,7.0,Calm,Calm,-,N/A,,Clear,0,2013-07-17 11:35:00
6:55 AM,69.8,69.8,100,30.30,10.0,Calm,Calm,-,N/A,,Clear,0,2013-07-17 11:55:00
7:15 AM,71.6,71.6,100,30.31,10.0,Calm,Calm,-,N/A,,Clear,0,2013-07-17 12:15:00
7:35 AM,73.4,71.6,94,30.31,10.0,Calm,Calm,-,N/A,,Clear,0,2013-07-17 12:35:00
7:55 AM,77.0,71.6,83,30.31,10.0,Calm,Calm,-,N/A,,Clear,0,2013-07-17 12:55:00
8:15 AM,77.0,71.6,83,30.32,10.0,Calm,Calm,-,N/A,,Clear,0,2013-07-17 13:15:00
8:35 AM,77.0,73.4,89,30.32,10.0,Calm,Calm,-,N/A,,Clear,0,2013-07-17 13:35:00
8:55 AM,78.8,71.6,78,30.32,10.0,South,3.5,-,N/A,,Clear,180,2013-07-17 13:55:00
9:15 AM,80.6,71.6,74,30.32,10.0,South,3.5,-,N/A,,Clear,170,2013-07-17 14:15:00
9:35 AM,82.4,71.6,70,30.33,10.0,Calm,Calm,-,N/A,,Clear,0,2013-07-17 14:35:00
9:55 AM,82.4,71.6,70,30.32,10.0,Calm,Calm,-,N/A,,Clear,0,2013-07-17 14:55:00
10:15 AM,84.2,71.6,66,30.32,10.0,Calm,Calm,-,N/A,,Clear,0,2013-07-17 15:15:00
10:35 AM,84.2,71.6,66,30.32,10.0,Calm,Calm,-,N/A,,Clear,0,2013-07-17 15:35:00
10:55 AM,86.0,69.8,58,30.32,10.0,SW,4.6,-,N/A,,Clear,220,2013-07-17 15:55:00
11:15 AM,86.0,69.8,58,30.32,10.0,Calm,Calm,-,N/A,,Clear,0,2013-07-17 16:15:00
11:35 AM,86.0,69.8,58,30.32,10.0,Calm,Calm,-,N/A,,Clear,0,2013-07-17 16:35:00
11:55 AM,87.8,69.8,55,30.32,10.0,SSE,3.5,-,N/A,,Clear,160,2013-07-17 16:55:00
12:15 PM,87.8,68.0,52,30.32,10.0,Calm,Calm,-,N/A,,Clear,0,2013-07-17 17:15:00
12:35 PM,87.8,69.8,55,30.31,10.0,Calm,Calm,-,N/A,,Clear,0,2013-07-17 17:35:00
12:55 PM,87.8,68.0,52,30.31,10.0,Calm,Calm,-,N/A,,Clear,0,2013-07-17 17:55:00
1:15 PM,87.8,68.0,52,30.31,10.0,SSE,3.5,-,N/A,,Scattered Clouds,150,2013-07-17 18:15:00
1:35 PM,87.8,69.8,55,30.30,10.0,Calm,Calm,-,N/A,,Clear,0,2013-07-17 18:35:00
1:55 PM,89.6,69.8,52,30.30,10.0,Calm,Calm,-,N/A,,Clear,0,2013-07-17 18:55:00
2:15 PM,87.8,68.0,52,30.29,10.0,South,3.5,-,N/A,,Clear,190,2013-07-17 19:15:00
2:35 PM,89.6,68.0,49,30.28,10.0,WSW,3.5,-,N/A,,Clear,250,2013-07-17 19:35:00
2:55 PM,89.6,68.0,49,30.27,10.0,SSW,4.6,-,N/A,,Clear,210,2013-07-17 19:55:00
3:15 PM,89.6,68.0,49,30.26,10.0,Calm,Calm,-,N/A,,Scattered Clouds,0,2013-07-17 20:15:00
3:35 PM,89.6,68.0,49,30.25,10.0,ESE,3.5,-,N/A,,Scattered Clouds,110,2013-07-17 20:35:00
3:55 PM,91.4,68.0,46,30.26,10.0,SSE,5.8,-,N/A,,Scattered Clouds,160,2013-07-17 20:55:00
4:15 PM,91.4,68.0,46,30.25,10.0,SSW,6.9,-,N/A,,Scattered Clouds,200,2013-07-17 21:15:00
4:35 PM,91.4,68.0,46,30.25,10.0,South,5.8,-,N/A,Thunderstorm,Thunderstorm,180,2013-07-17 21:35:00
4:55 PM,91.4,68.0,46,30.24,10.0,SSW,5.8,-,N/A,,Clear,200,2013-07-17 21:55:00
5:15 PM,89.6,69.8,52,30.24,10.0,South,9.2,-,N/A,,Scattered Clouds,190,2013-07-17 22:15:00
5:35 PM,87.8,69.8,55,30.23,10.0,South,9.2,-,N/A,,Scattered Clouds,180,2013-07-17 22:35:00
5:55 PM,89.6,68.0,49,30.22,10.0,South,5.8,-,N/A,Thunderstorm,Clear,190,2013-07-17 22:55:00
6:15 PM,89.6,62.6,40,30.22,10.0,South,4.6,-,N/A,,Clear,170,2013-07-17 23:15:00
6:35 PM,87.8,66.2,49,30.22,10.0,Calm,Calm,-,N/A,,Clear,0,2013-07-17 23:35:00
6:55 PM,89.6,68.0,49,30.21,10.0,Calm,Calm,-,N/A,,Clear,0,2013-07-17 23:55:00
7:15 PM,89.6,68.0,49,30.21,10.0,Calm,Calm,-,N/A,,Clear,0,2013-07-18 00:15:00
7:35 PM,87.8,69.8,55,30.20,10.0,Calm,Calm,-,N/A,,Unknown,0,2013-07-18 00:35:00
7:55 PM,87.8,69.8,55,30.20,10.0,Calm,Calm,-,N/A,,Clear,0,2013-07-18 00:55:00
8:15 PM,86.0,69.8,58,30.20,10.0,Calm,Calm,-,N/A,,Clear,0,2013-07-18 01:15:00
8:35 PM,82.4,71.6,70,30.20,10.0,Calm,Calm,-,N/A,,Clear,0,2013-07-18 01:35:00
8:55 PM,82.4,71.6,70,30.20,10.0,Calm,Calm,-,N/A,,Clear,0,2013-07-18 01:55:00
9:15 PM,80.6,71.6,74,30.20,10.0,Calm,Calm,-,N/A,,Clear,0,2013-07-18 02:15:00
9:35 PM,78.8,71.6,78,30.20,10.0,Calm,Calm,-,N/A,,Clear,0,2013-07-18 02:35:00
9:55 PM,78.8,71.6,78,30.21,10.0,Calm,Calm,-,N/A,,Clear,0,2013-07-18 02:55:00
10:15 PM,77.0,73.4,89,30.21,10.0,Calm,Calm,-,N/A,,Clear,0,2013-07-18 03:15:00
10:35 PM,77.0,71.6,83,30.21,10.0,Calm,Calm,-,N/A,,Clear,0,2013-07-18 03:35:00
10:55 PM,77.0,71.6,83,30.21,10.0,Calm,Calm,-,N/A,,Clear,0,2013-07-18 03:55:00
11:15 PM,75.2,73.4,94,30.22,10.0,Calm,Calm,-,N/A,,Clear,0,2013-07-18 04:15:00
11:35 PM,75.2,73.4,94,30.22,10.0,Calm,Calm,-,N/A,,Clear,0,2013-07-18 04:35:00
11:55 PM,75.2,73.4,94,30.22,10.0,Calm,Calm,-,N/A,,Clear,0,2013-07-18 04:55:00